TimePDT,TemperatureF,Dew PointF,Humidity,Sea Level PressureIn,VisibilityMPH,Wind Direction,Wind SpeedMPH,Gust SpeedMPH,PrecipitationIn,Events,Conditions,WindDirDegrees,DateUTC
12:53 AM,55.9,51.1,84,30.05,5.0,Calm,Calm,-,N/A,,Haze,0,2013-07-05 07:53:00
1:53 AM,55.0,50.0,83,30.04,5.0,NE,4.6,-,N/A,,Haze,40,2013-07-05 08:53:00
2:53 AM,54.0,50.0,86,30.04,7.0,NNE,3.5,-,N/A,,Clear,20,2013-07-05 09:53:00
3:53 AM,54.0,50.0,86,30.04,7.0,Calm,Calm,-,N/A,,Scattered Clouds,0,2013-07-05 10:53:00
4:01 AM,53.6,51.8,94,30.04,8.0,Calm,Calm,-,N/A,,Mostly Cloudy,0,2013-07-05 11:01:00
4:29 AM,53.6,51.8,94,30.04,9.0,Calm,Calm,-,N/A,,Mostly Cloudy,0,2013-07-05 11:29:00
4:40 AM,53.6,51.8,94,30.04,9.0,Calm,Calm,-,N/A,,Mostly Cloudy,0,2013-07-05 11:40:00
4:53 AM,55.0,51.1,86,30.03,10.0,Calm,Calm,-,N/A,,Mostly Cloudy,0,2013-07-05 11:53:00
5:23 AM,53.6,51.8,94,30.04,9.0,Calm,Calm,-,N/A,,Overcast,0,2013-07-05 12:23:00
5:53 AM,55.0,51.1,86,30.04,9.0,Calm,Calm,-,N/A,,Overcast,0,2013-07-05 12:53:00
6:53 AM,55.9,51.1,84,30.04,7.0,SSE,5.8,-,N/A,,Mostly Cloudy,160,2013-07-05 13:53:00
7:53 AM,57.9,51.1,78,30.05,7.0,Calm,Calm,-,N/A,,Mostly Cloudy,0,2013-07-05 14:53:00
8:09 AM,57.2,51.8,82,30.05,7.0,West,3.5,-,N/A,,Mostly Cloudy,280,2013-07-05 15:09:00
8:37 AM,57.2,53.6,88,30.05,4.0,West,5.8,-,N/A,,Haze,260,2013-07-05 15:37:00
8:53 AM,57.9,53.1,84,30.05,5.0,West,5.8,-,N/A,,Haze,260,2013-07-05 15:53:00
9:53 AM,60.1,53.1,78,30.05,8.0,Calm,Calm,-,N/A,,Overcast,0,2013-07-05 16:53:00
10:00 AM,60.8,53.6,77,30.05,8.0,Variable,3.5,-,N/A,,Overcast,0,2013-07-05 17:00:00
10:07 AM,62.6,53.6,72,30.05,8.0,South,4.6,-,N/A,,Mostly Cloudy,170,2013-07-05 17:07:00
10:53 AM,61.0,53.1,75,30.04,10.0,WNW,3.5,-,N/A,,Mostly Cloudy,290,2013-07-05 17:53:00
11:00 AM,60.8,53.6,77,30.04,10.0,WNW,3.5,-,N/A,,Overcast,300,2013-07-05 18:00:00
11:53 AM,64.9,52.0,63,30.04,10.0,SSW,3.5,-,N/A,,Overcast,210,2013-07-05 18:53:00
12:53 PM,66.0,51.1,59,30.04,10.0,WSW,4.6,-,N/A,,Mostly Cloudy,240,2013-07-05 19:53:00
1:53 PM,70.0,50.0,49,30.03,10.0,SSW,3.5,-,N/A,,Clear,200,2013-07-05 20:53:00
2:53 PM,72.0,51.1,48,30.02,10.0,WNW,6.9,-,N/A,,Clear,300,2013-07-05 21:53:00
3:53 PM,71.1,50.0,47,30.01,10.0,West,5.8,-,N/A,,Clear,280,2013-07-05 22:53:00
4:53 PM,72.0,50.0,46,30.00,10.0,WNW,6.9,-,N/A,,Clear,290,2013-07-05 23:53:00
5:53 PM,71.1,50.0,47,29.99,10.0,West,5.8,-,N/A,,Clear,270,2013-07-06 00:53:00
6:53 PM,71.1,50.0,47,29.98,10.0,NW,3.5,-,N/A,,Clear,310,2013-07-06 01:53:00
7:53 PM,70.0,51.1,51,29.97,10.0,WNW,5.8,-,N/A,,Clear,290,2013-07-06 02:53:00
8:53 PM,66.9,51.1,57,29.98,10.0,West,3.5,-,N/A,,Clear,260,2013-07-06 03:53:00
9:53 PM,64.9,52.0,63,29.99,10.0,WSW,3.5,-,N/A,,Clear,250,2013-07-06 04:53:00
10:53 PM,61.0,52.0,72,29.99,10.0,Calm,Calm,-,N/A,,Clear,0,2013-07-06 05:53:00
11:53 PM,59.0,53.1,81,29.99,10.0,North,4.6,-,N/A,,Clear,10,2013-07-06 06:53:00